Location: Oriwa
(40.7500°S, 175.3333°E)
Time: 14:09:54
(UTC+00:00)

Cosmos 1110 Rocket - Pass Details

Date: 03 February 2023
Orbit: 753 x 779 km, 74.0° (Epoch: 31 March)

Event Time Altitude Azimuth Distance (km) Brightness Sun altitude
Rises 15:47:46 0° 204° (SSW) 3,270 7.5 -17.1°
Reaches altitude 10° 15:50:11 10° 207° (SSW) 2,341 6.7 -16.7°
Maximum altitude 15:55:25 59° 285° (WNW) 901 4.0 -16.0°
Drops below altitude 10° 16:00:36 10° 3° (N) 2,327 6.2 -15.2°
Enters shadow 16:02:41 - 6° (N) 3,128 6.9 -14.9°
